Time,TemperatureF,DewpointF,PressureIn,WindDirection,WindDirectionDegrees,WindSpeedMPH,WindSpeedGustMPH,Humidity,HourlyPrecipIn,Conditions,Clouds,dailyrainin,SoftwareType,DateUTC
2013-02-15 00:04:00,48.0,27.7,29.45,SW,224,0.0,0.0,45,0.00,,,0.00,meteohub,2013-02-15 06:04:00,
2013-02-15 00:09:00,48.4,27.5,29.45,SW,224,0.0,0.0,44,0.00,,,0.00,meteohub,2013-02-15 06:09:00,
2013-02-15 00:14:00,48.7,27.9,29.48,NNE,24,3.0,0.0,44,0.00,,,0.00,meteohub,2013-02-15 06:14:00,
2013-02-15 00:19:00,49.1,27.5,29.48,North,353,0.0,3.0,43,0.00,,,0.00,meteohub,2013-02-15 06:19:00,
2013-02-15 00:24:00,49.6,28.0,29.48,ENE,64,2.0,3.0,43,0.00,,,0.00,meteohub,2013-02-15 06:24:00,
2013-02-15 00:29:00,49.8,28.2,29.48,NNE,27,0.0,3.0,43,0.00,,,0.00,meteohub,2013-02-15 06:29:00,
2013-02-15 00:34:00,50.2,27.3,29.48,NE,42,4.0,4.0,41,0.00,,,0.00,meteohub,2013-02-15 06:34:00,
2013-02-15 00:39:00,50.5,27.1,29.48,East,87,3.0,5.0,40,0.00,,,0.00,meteohub,2013-02-15 06:39:00,
2013-02-15 00:44:00,51.1,27.0,29.51,NNW,337,3.0,5.0,39,0.00,,,0.00,meteohub,2013-02-15 06:44:00,
2013-02-15 00:50:00,51.4,27.3,29.51,North,0,0.0,7.0,39,0.00,,,0.00,meteohub,2013-02-15 06:50:00,
2013-02-15 00:55:00,51.6,26.8,29.51,ESE,116,3.0,7.0,38,0.00,,,0.00,meteohub,2013-02-15 06:55:00,
2013-02-15 01:00:00,52.0,26.6,29.51,NE,52,4.0,7.0,37,0.00,,,0.00,meteohub,2013-02-15 07:00:00,
2013-02-15 01:05:00,52.3,26.8,29.51,NNW,330,2.0,8.0,37,0.00,,,0.00,meteohub,2013-02-15 07:05:00,
2013-02-15 01:10:00,52.5,26.2,29.51,East,86,7.0,10.0,36,0.00,,,0.00,meteohub,2013-02-15 07:10:00,
2013-02-15 01:15:00,52.7,26.4,29.51,NE,36,4.0,10.0,36,0.00,,,0.00,meteohub,2013-02-15 07:15:00,
2013-02-15 01:20:00,53.1,26.8,29.51,South,173,3.0,10.0,36,0.00,,,0.00,meteohub,2013-02-15 07:20:00,
2013-02-15 01:25:00,53.1,26.1,29.51,ESE,116,7.0,10.0,35,0.00,,,0.00,meteohub,2013-02-15 07:25:00,
2013-02-15 01:30:00,53.1,25.3,29.51,NE,46,5.0,10.0,34,0.00,,,0.00,meteohub,2013-02-15 07:30:00,
2013-02-15 01:35:00,53.1,24.8,29.51,NE,49,4.0,10.0,33,0.00,,,0.00,meteohub,2013-02-15 07:35:00,
2013-02-15 01:40:00,52.9,24.6,29.51,ESE,104,4.0,11.0,33,0.00,,,0.00,meteohub,2013-02-15 07:40:00,
2013-02-15 01:45:00,52.9,24.6,29.54,ENE,67,3.0,11.0,33,0.00,,,0.00,meteohub,2013-02-15 07:45:00,
2013-02-15 01:50:00,52.9,24.6,29.54,ENE,69,5.0,10.0,33,0.00,,,0.00,meteohub,2013-02-15 07:50:00,
2013-02-15 01:55:00,52.7,24.4,29.54,East,79,3.0,11.0,33,0.00,,,0.00,meteohub,2013-02-15 07:55:00,
2013-02-15 02:00:00,52.7,24.4,29.54,ENE,72,0.0,11.0,33,0.00,,,0.00,meteohub,2013-02-15 08:00:00,
2013-02-15 02:05:00,52.5,24.3,29.54,ESE,104,4.0,9.0,33,0.00,,,0.00,meteohub,2013-02-15 08:05:00,
2013-02-15 02:10:00,52.5,24.3,29.54,ENE,60,3.0,11.0,33,0.00,,,0.00,meteohub,2013-02-15 08:10:00,
2013-02-15 02:15:00,52.3,24.1,29.54,SW,234,5.0,11.0,33,0.00,,,0.00,meteohub,2013-02-15 08:15:00,
2013-02-15 02:20:00,52.2,23.9,29.54,NNE,31,4.0,11.0,33,0.00,,,0.00,meteohub,2013-02-15 08:20:00,
2013-02-15 02:26:00,52.2,23.9,29.54,East,98,7.0,9.0,33,0.00,,,0.00,meteohub,2013-02-15 08:26:00,
2013-02-15 02:31:00,52.0,23.7,29.54,NNE,29,8.0,9.0,33,0.00,,,0.00,meteohub,2013-02-15 08:31:00,
2013-02-15 02:36:00,51.8,23.5,29.54,NNE,24,5.0,11.0,33,0.00,,,0.00,meteohub,2013-02-15 08:36:00,
2013-02-15 02:41:00,51.8,23.5,29.54,ESE,122,3.0,11.0,33,0.00,,,0.00,meteohub,2013-02-15 08:41:00,
2013-02-15 02:46:00,51.6,23.4,29.54,ESE,123,4.0,11.0,33,0.00,,,0.00,meteohub,2013-02-15 08:46:00,
2013-02-15 02:51:00,51.6,23.4,29.54,ENE,76,5.0,11.0,33,0.00,,,0.00,meteohub,2013-02-15 08:51:00,
2013-02-15 02:56:00,51.6,23.4,29.54,ENE,71,8.0,9.0,33,0.00,,,0.00,meteohub,2013-02-15 08:56:00,
2013-02-15 03:01:00,51.6,23.4,29.54,ESE,110,5.0,11.0,33,0.00,,,0.00,meteohub,2013-02-15 09:01:00,
2013-02-15 03:06:00,51.4,23.4,29.54,NNW,346,10.0,11.0,33,0.00,,,0.00,meteohub,2013-02-15 09:06:00,
2013-02-15 03:11:00,51.4,22.6,29.54,ENE,78,3.0,11.0,32,0.00,,,0.00,meteohub,2013-02-15 09:11:00,
2013-02-15 03:16:00,51.3,22.5,29.54,East,97,6.0,11.0,32,0.00,,,0.00,meteohub,2013-02-15 09:16:00,
2013-02-15 03:21:00,51.1,22.3,29.54,East,98,4.0,11.0,32,0.00,,,0.00,meteohub,2013-02-15 09:21:00,
2013-02-15 03:26:00,51.1,22.3,29.54,NNE,33,3.0,9.0,32,0.00,,,0.00,meteohub,2013-02-15 09:26:00,
2013-02-15 03:31:00,51.1,22.3,29.54,ENE,68,4.0,9.0,32,0.00,,,0.00,meteohub,2013-02-15 09:31:00,
2013-02-15 03:36:00,51.1,22.3,29.54,NW,317,4.0,7.0,32,0.00,,,0.00,meteohub,2013-02-15 09:36:00,
2013-02-15 03:41:00,50.9,22.1,29.54,ESE,109,4.0,8.0,32,0.00,,,0.00,meteohub,2013-02-15 09:41:00,
2013-02-15 03:46:00,51.1,22.3,29.54,NE,38,6.0,10.0,32,0.00,,,0.00,meteohub,2013-02-15 09:46:00,
2013-02-15 03:51:00,50.9,22.1,29.54,ESE,113,8.0,10.0,32,0.00,,,0.00,meteohub,2013-02-15 09:51:00,
2013-02-15 03:57:00,50.9,22.1,29.54,ENE,70,9.0,10.0,32,0.00,,,0.00,meteohub,2013-02-15 09:57:00,
2013-02-15 04:02:00,50.9,22.1,29.54,ENE,59,6.0,9.0,32,0.00,,,0.00,meteohub,2013-02-15 10:02:00,
2013-02-15 04:07:00,50.7,21.9,29.54,WNW,293,5.0,10.0,32,0.00,,,0.00,meteohub,2013-02-15 10:07:00,
2013-02-15 04:12:00,50.7,22.6,29.54,NE,41,7.0,10.0,33,0.00,,,0.00,meteohub,2013-02-15 10:12:00,
2013-02-15 04:17:00,50.7,22.6,29.57,North,350,6.0,10.0,33,0.00,,,0.00,meteohub,2013-02-15 10:17:00,
2013-02-15 04:22:00,50.5,22.5,29.57,NNW,329,3.0,10.0,33,0.00,,,0.00,meteohub,2013-02-15 10:22:00,
2013-02-15 04:27:00,50.5,22.5,29.57,East,87,3.0,11.0,33,0.00,,,0.00,meteohub,2013-02-15 10:27:00,
2013-02-15 04:32:00,50.4,23.0,29.57,WSW,237,5.0,11.0,34,0.00,,,0.00,meteohub,2013-02-15 10:32:00,
2013-02-15 04:37:00,50.2,22.8,29.57,ESE,107,5.0,8.0,34,0.00,,,0.00,meteohub,2013-02-15 10:37:00,
2013-02-15 04:42:00,50.2,22.8,29.57,ENE,72,4.0,8.0,34,0.00,,,0.00,meteohub,2013-02-15 10:42:00,
2013-02-15 04:47:00,50.2,22.8,29.57,NE,56,4.0,6.0,34,0.00,,,0.00,meteohub,2013-02-15 10:47:00,
2013-02-15 04:52:00,50.0,22.6,29.57,NNE,28,4.0,7.0,34,0.00,,,0.00,meteohub,2013-02-15 10:52:00,
2013-02-15 04:57:00,50.0,23.4,29.57,East,83,5.0,7.0,35,0.00,,,0.00,meteohub,2013-02-15 10:57:00,
2013-02-15 05:02:00,50.0,23.4,29.57,NE,44,3.0,7.0,35,0.00,,,0.00,meteohub,2013-02-15 11:02:00,
2013-02-15 05:07:00,49.8,23.9,29.57,NE,38,3.0,8.0,36,0.00,,,0.00,meteohub,2013-02-15 11:07:00,
2013-02-15 05:12:00,49.8,23.9,29.57,ENE,60,8.0,8.0,36,0.00,,,0.00,meteohub,2013-02-15 11:12:00,
2013-02-15 05:17:00,49.8,23.9,29.57,NE,37,5.0,8.0,36,0.00,,,0.00,meteohub,2013-02-15 11:17:00,
2013-02-15 05:22:00,49.8,23.9,29.57,East,97,6.0,8.0,36,0.00,,,0.00,meteohub,2013-02-15 11:22:00,
2013-02-15 05:27:00,49.6,24.4,29.57,ESE,122,6.0,8.0,37,0.00,,,0.00,meteohub,2013-02-15 11:27:00,
2013-02-15 05:32:00,49.6,24.4,29.57,NNE,22,7.0,11.0,37,0.00,,,0.00,meteohub,2013-02-15 11:32:00,
2013-02-15 05:37:00,49.5,24.3,29.57,SE,133,3.0,11.0,37,0.00,,,0.00,meteohub,2013-02-15 11:37:00,
2013-02-15 05:42:00,49.5,24.3,29.57,ENE,72,4.0,11.0,37,0.00,,,0.00,meteohub,2013-02-15 11:42:00,
2013-02-15 05:47:00,49.3,24.1,29.60,ESE,106,4.0,8.0,37,0.00,,,0.00,meteohub,2013-02-15 11:47:00,
2013-02-15 05:52:00,49.3,24.1,29.60,NE,41,6.0,10.0,37,0.00,,,0.00,meteohub,2013-02-15 11:52:00,
2013-02-15 05:57:00,49.1,23.9,29.60,East,84,4.0,10.0,37,0.00,,,0.00,meteohub,2013-02-15 11:57:00,
2013-02-15 06:02:00,48.9,24.4,29.60,NNE,33,5.0,11.0,38,0.00,,,0.00,meteohub,2013-02-15 12:02:00,
2013-02-15 06:07:00,48.7,24.3,29.60,ENE,69,3.0,11.0,38,0.00,,,0.00,meteohub,2013-02-15 12:07:00,
2013-02-15 06:12:00,48.7,24.3,29.60,East,93,5.0,11.0,38,0.00,,,0.00,meteohub,2013-02-15 12:12:00,
2013-02-15 06:17:00,48.6,24.1,29.60,East,88,6.0,9.0,38,0.00,,,0.00,meteohub,2013-02-15 12:17:00,
2013-02-15 06:22:00,48.4,23.9,29.60,NE,55,3.0,8.0,38,0.00,,,0.00,meteohub,2013-02-15 12:22:00,
2013-02-15 06:27:00,48.2,23.7,29.60,North,4,4.0,10.0,38,0.00,,,0.00,meteohub,2013-02-15 12:27:00,
2013-02-15 06:32:00,48.0,24.3,29.60,NE,56,4.0,10.0,39,0.00,,,0.00,meteohub,2013-02-15 12:32:00,
2013-02-15 06:37:00,47.8,24.1,29.60,North,353,6.0,11.0,39,0.00,,,0.00,meteohub,2013-02-15 12:37:00,
2013-02-15 06:42:00,47.7,23.4,29.60,NE,35,8.0,11.0,38,0.00,,,0.00,meteohub,2013-02-15 12:42:00,
2013-02-15 06:47:00,47.7,23.4,29.60,ENE,65,8.0,11.0,38,0.00,,,0.00,meteohub,2013-02-15 12:47:00,
2013-02-15 06:52:00,47.5,23.2,29.60,North,6,5.0,10.0,38,0.00,,,0.00,meteohub,2013-02-15 12:52:00,
2013-02-15 06:57:00,47.3,23.0,29.60,NE,34,4.0,11.0,38,0.00,,,0.00,meteohub,2013-02-15 12:57:00,
2013-02-15 07:02:00,47.3,23.0,29.63,NE,42,3.0,11.0,38,0.00,,,0.00,meteohub,2013-02-15 13:02:00,
2013-02-15 07:07:00,47.3,23.0,29.63,NE,38,8.0,11.0,38,0.00,,,0.00,meteohub,2013-02-15 13:07:00,
2013-02-15 07:12:00,47.1,22.8,29.63,ESE,104,6.0,9.0,38,0.00,,,0.00,meteohub,2013-02-15 13:12:00,
2013-02-15 07:17:00,47.1,22.8,29.63,NE,36,4.0,9.0,38,0.00,,,0.00,meteohub,2013-02-15 13:17:00,
2013-02-15 07:22:00,46.9,23.2,29.63,NE,47,3.0,8.0,39,0.00,,,0.00,meteohub,2013-02-15 13:22:00,
2013-02-15 07:27:00,46.9,23.2,29.63,East,91,5.0,8.0,39,0.00,,,0.00,meteohub,2013-02-15 13:27:00,
2013-02-15 07:32:00,46.9,23.2,29.63,North,0,3.0,8.0,39,0.00,,,0.00,meteohub,2013-02-15 13:32:00,
2013-02-15 07:37:00,46.8,23.2,29.63,NE,46,4.0,8.0,39,0.00,,,0.00,meteohub,2013-02-15 13:37:00,
2013-02-15 07:42:00,46.8,23.2,29.63,NNE,27,5.0,10.0,39,0.00,,,0.00,meteohub,2013-02-15 13:42:00,
2013-02-15 07:47:00,46.6,23.5,29.63,NE,44,5.0,10.0,40,0.00,,,0.00,meteohub,2013-02-15 13:47:00,
2013-02-15 07:52:00,46.4,23.4,29.63,ENE,70,4.0,10.0,40,0.00,,,0.00,meteohub,2013-02-15 13:52:00,
2013-02-15 07:57:00,46.2,23.2,29.63,NE,46,8.0,9.0,40,0.00,,,0.00,meteohub,2013-02-15 13:57:00,
2013-02-15 08:02:00,46.2,23.2,29.63,NNW,330,3.0,8.0,40,0.00,,,0.00,meteohub,2013-02-15 14:02:00,
2013-02-15 08:07:00,46.2,23.9,29.63,NE,47,3.0,8.0,41,0.00,,,0.00,meteohub,2013-02-15 14:07:00,
2013-02-15 08:12:00,46.2,23.9,29.63,East,97,3.0,10.0,41,0.00,,,0.00,meteohub,2013-02-15 14:12:00,
2013-02-15 08:17:00,46.0,23.7,29.66,ENE,63,5.0,10.0,41,0.00,,,0.00,meteohub,2013-02-15 14:17:00,
2013-02-15 08:22:00,46.0,23.7,29.66,ENE,62,4.0,10.0,41,0.00,,,0.00,meteohub,2013-02-15 14:22:00,
2013-02-15 08:27:00,46.0,23.7,29.66,NNE,12,4.0,9.0,41,0.00,,,0.00,meteohub,2013-02-15 14:27:00,
2013-02-15 08:32:00,46.0,23.7,29.66,ENE,74,4.0,9.0,41,0.00,,,0.00,meteohub,2013-02-15 14:32:00,
2013-02-15 08:37:00,46.0,23.7,29.66,ENE,57,3.0,9.0,41,0.00,,,0.00,meteohub,2013-02-15 14:37:00,
2013-02-15 08:42:00,46.0,23.7,29.66,ENE,58,3.0,6.0,41,0.00,,,0.00,meteohub,2013-02-15 14:42:00,
2013-02-15 08:47:00,46.2,23.9,29.66,SE,127,3.0,6.0,41,0.00,,,0.00,meteohub,2013-02-15 14:47:00,
2013-02-15 08:52:00,46.2,23.9,29.66,East,91,3.0,6.0,41,0.00,,,0.00,meteohub,2013-02-15 14:52:00,
2013-02-15 08:57:00,46.2,23.9,29.66,ENE,75,2.0,8.0,41,0.00,,,0.00,meteohub,2013-02-15 14:57:00,
2013-02-15 09:02:00,46.2,23.2,29.66,NE,48,5.0,8.0,40,0.00,,,0.00,meteohub,2013-02-15 15:02:00,
2013-02-15 09:07:00,46.2,23.2,29.66,ENE,57,3.0,8.0,40,0.00,,,0.00,meteohub,2013-02-15 15:07:00,
2013-02-15 09:12:00,46.2,23.2,29.66,North,357,2.0,6.0,40,0.00,,,0.00,meteohub,2013-02-15 15:12:00,
2013-02-15 09:17:00,46.2,23.2,29.66,SE,124,3.0,6.0,40,0.00,,,0.00,meteohub,2013-02-15 15:17:00,
2013-02-15 09:22:00,46.4,22.8,29.66,ENE,71,3.0,6.0,39,0.00,,,0.00,meteohub,2013-02-15 15:22:00,
2013-02-15 09:27:00,46.4,22.8,29.66,East,86,0.0,8.0,39,0.00,,,0.00,meteohub,2013-02-15 15:27:00,
2013-02-15 09:32:00,46.6,23.0,29.66,NE,41,2.0,8.0,39,0.00,,,0.00,meteohub,2013-02-15 15:32:00,
2013-02-15 09:37:00,46.8,23.2,29.66,East,91,0.0,8.0,39,0.00,,,0.00,meteohub,2013-02-15 15:37:00,
2013-02-15 09:42:00,46.8,22.5,29.66,East,82,5.0,7.0,38,0.00,,,0.00,meteohub,2013-02-15 15:42:00,
2013-02-15 09:47:00,46.8,22.5,29.69,ENE,74,4.0,8.0,38,0.00,,,0.00,meteohub,2013-02-15 15:47:00,
2013-02-15 09:52:00,46.8,21.9,29.69,NNE,25,4.0,8.0,37,0.00,,,0.00,meteohub,2013-02-15 15:52:00,
2013-02-15 09:57:00,46.8,21.9,29.69,NNE,16,4.0,10.0,37,0.00,,,0.00,meteohub,2013-02-15 15:57:00,
2013-02-15 10:02:00,46.8,21.9,29.69,NE,50,6.0,10.0,37,0.00,,,0.00,meteohub,2013-02-15 16:02:00,
2013-02-15 10:07:00,46.6,21.7,29.69,North,0,4.0,10.0,37,0.00,,,0.00,meteohub,2013-02-15 16:07:00,
2013-02-15 10:12:00,46.8,21.2,29.69,North,0,4.0,8.0,36,0.00,,,0.00,meteohub,2013-02-15 16:12:00,
2013-02-15 10:17:00,46.8,20.5,29.69,ENE,69,5.0,8.0,35,0.00,,,0.00,meteohub,2013-02-15 16:17:00,
2013-02-15 10:22:00,46.8,19.9,29.69,ESE,106,4.0,9.0,34,0.00,,,0.00,meteohub,2013-02-15 16:22:00,
2013-02-15 10:27:00,46.8,18.5,29.69,East,98,5.0,9.0,32,0.00,,,0.00,meteohub,2013-02-15 16:27:00,
2013-02-15 10:32:00,46.8,18.5,29.69,SE,127,4.0,9.0,32,0.00,,,0.00,meteohub,2013-02-15 16:32:00,
2013-02-15 10:37:00,46.9,18.7,29.69,ENE,69,4.0,8.0,32,0.00,,,0.00,meteohub,2013-02-15 16:37:00,
2013-02-15 10:42:00,46.9,19.4,29.69,East,100,4.0,8.0,33,0.00,,,0.00,meteohub,2013-02-15 16:42:00,
2013-02-15 10:47:00,46.9,19.4,29.69,NNW,338,3.0,8.0,33,0.00,,,0.00,meteohub,2013-02-15 16:47:00,
2013-02-15 10:52:00,47.1,20.1,29.69,East,79,4.0,6.0,34,0.00,,,0.00,meteohub,2013-02-15 16:52:00,
2013-02-15 10:57:00,47.3,19.6,29.69,ENE,59,3.0,6.0,33,0.00,,,0.00,meteohub,2013-02-15 16:57:00,
2013-02-15 11:02:00,47.3,19.6,29.69,NNE,15,5.0,8.0,33,0.00,,,0.00,meteohub,2013-02-15 17:02:00,
2013-02-15 11:07:00,47.1,18.7,29.69,NNW,333,5.0,8.0,32,0.00,,,0.00,meteohub,2013-02-15 17:07:00,
2013-02-15 11:12:00,46.9,17.8,29.69,East,86,4.0,8.0,31,0.00,,,0.00,meteohub,2013-02-15 17:12:00,
2013-02-15 11:17:00,46.9,17.8,29.72,North,4,5.0,8.0,31,0.00,,,0.00,meteohub,2013-02-15 17:17:00,
2013-02-15 11:22:00,46.9,17.8,29.72,NNW,335,4.0,8.0,31,0.00,,,0.00,meteohub,2013-02-15 17:22:00,
2013-02-15 11:27:00,46.9,17.8,29.72,East,96,4.0,8.0,31,0.00,,,0.00,meteohub,2013-02-15 17:27:00,
2013-02-15 11:32:00,47.1,17.2,29.69,NNE,33,2.0,8.0,30,0.00,,,0.00,meteohub,2013-02-15 17:32:00,
2013-02-15 11:37:00,47.1,17.2,29.69,NE,35,4.0,9.0,30,0.00,,,0.00,meteohub,2013-02-15 17:37:00,
2013-02-15 11:42:00,46.9,16.3,29.69,East,95,4.0,9.0,29,0.00,,,0.00,meteohub,2013-02-15 17:42:00,
2013-02-15 11:47:00,46.9,16.3,29.72,NNW,334,5.0,6.0,29,0.00,,,0.00,meteohub,2013-02-15 17:47:00,
2013-02-15 11:52:00,46.8,16.2,29.72,NNW,343,3.0,6.0,29,0.00,,,0.00,meteohub,2013-02-15 17:52:00,
2013-02-15 11:57:00,46.6,16.0,29.72,NE,55,5.0,6.0,29,0.00,,,0.00,meteohub,2013-02-15 17:57:00,
2013-02-15 12:02:00,46.4,15.8,29.69,East,100,5.0,8.0,29,0.00,,,0.00,meteohub,2013-02-15 18:02:00,
2013-02-15 12:07:00,46.4,15.1,29.69,North,10,6.0,8.0,28,0.00,,,0.00,meteohub,2013-02-15 18:07:00,
2013-02-15 12:12:00,46.4,15.1,29.69,ENE,64,4.0,8.0,28,0.00,,,0.00,meteohub,2013-02-15 18:12:00,
2013-02-15 12:17:00,46.4,15.1,29.69,ESE,110,3.0,8.0,28,0.00,,,0.00,meteohub,2013-02-15 18:17:00,
2013-02-15 12:22:00,46.6,15.3,29.69,NNW,327,5.0,8.0,28,0.00,,,0.00,meteohub,2013-02-15 18:22:00,
2013-02-15 12:27:00,46.9,15.4,29.69,ENE,71,5.0,8.0,28,0.00,,,0.00,meteohub,2013-02-15 18:27:00,
2013-02-15 12:32:00,47.3,15.8,29.69,NNW,332,3.0,6.0,28,0.00,,,0.00,meteohub,2013-02-15 18:32:00,
2013-02-15 12:37:00,47.7,16.2,29.69,North,353,4.0,8.0,28,0.00,,,0.00,meteohub,2013-02-15 18:37:00,
2013-02-15 12:42:00,47.7,16.2,29.69,NE,51,0.0,8.0,28,0.00,,,0.00,meteohub,2013-02-15 18:42:00,
2013-02-15 12:47:00,47.7,16.2,29.69,NE,53,3.0,6.0,28,0.00,,,0.00,meteohub,2013-02-15 18:47:00,
2013-02-15 12:52:00,47.5,16.0,29.69,ENE,60,6.0,6.0,28,0.00,,,0.00,meteohub,2013-02-15 18:52:00,
2013-02-15 12:57:00,47.5,16.0,29.69,NNE,29,5.0,6.0,28,0.00,,,0.00,meteohub,2013-02-15 18:57:00,
2013-02-15 13:02:00,47.7,16.2,29.69,North,9,3.0,6.0,28,0.00,,,0.00,meteohub,2013-02-15 19:02:00,
2013-02-15 13:07:00,47.7,16.2,29.69,ENE,76,4.0,8.0,28,0.00,,,0.00,meteohub,2013-02-15 19:07:00,
2013-02-15 13:12:00,47.7,16.2,29.69,West,271,3.0,8.0,28,0.00,,,0.00,meteohub,2013-02-15 19:12:00,
2013-02-15 13:17:00,48.2,15.8,29.69,NNW,330,2.0,8.0,27,0.00,,,0.00,meteohub,2013-02-15 19:17:00,
2013-02-15 13:22:00,48.7,16.2,29.69,NE,46,3.0,6.0,27,0.00,,,0.00,meteohub,2013-02-15 19:22:00,
2013-02-15 13:27:00,49.1,16.5,29.69,East,85,3.0,6.0,27,0.00,,,0.00,meteohub,2013-02-15 19:27:00,
2013-02-15 13:32:00,49.3,16.7,29.66,NNW,331,3.0,6.0,27,0.00,,,0.00,meteohub,2013-02-15 19:32:00,
2013-02-15 13:37:00,49.3,16.7,29.66,ESE,104,4.0,8.0,27,0.00,,,0.00,meteohub,2013-02-15 19:37:00,
2013-02-15 13:42:00,49.3,16.7,29.66,NE,42,5.0,8.0,27,0.00,,,0.00,meteohub,2013-02-15 19:42:00,
2013-02-15 13:47:00,49.3,16.7,29.66,ESE,114,3.0,8.0,27,0.00,,,0.00,meteohub,2013-02-15 19:47:00,
2013-02-15 13:52:00,49.3,16.7,29.66,ENE,64,6.0,6.0,27,0.00,,,0.00,meteohub,2013-02-15 19:52:00,
2013-02-15 13:57:00,49.3,16.7,29.66,ENE,76,3.0,8.0,27,0.00,,,0.00,meteohub,2013-02-15 19:57:00,
2013-02-15 14:02:00,49.3,16.7,29.66,NNW,342,3.0,8.0,27,0.00,,,0.00,meteohub,2013-02-15 20:02:00,
2013-02-15 14:07:00,49.3,16.7,29.66,ENE,68,0.0,6.0,27,0.00,,,0.00,meteohub,2013-02-15 20:07:00,
2013-02-15 14:12:00,49.5,16.9,29.66,NNW,335,2.0,6.0,27,0.00,,,0.00,meteohub,2013-02-15 20:12:00,
2013-02-15 14:17:00,49.5,16.9,29.66,NE,41,3.0,6.0,27,0.00,,,0.00,meteohub,2013-02-15 20:17:00,
2013-02-15 14:22:00,49.6,17.1,29.66,NNW,341,4.0,5.0,27,0.00,,,0.00,meteohub,2013-02-15 20:22:00,
2013-02-15 14:27:00,50.2,16.5,29.66,ENE,64,5.0,5.0,26,0.00,,,0.00,meteohub,2013-02-15 20:27:00,
2013-02-15 14:32:00,50.5,16.9,29.66,NNW,343,3.0,5.0,26,0.00,,,0.00,meteohub,2013-02-15 20:32:00,
2013-02-15 14:37:00,50.9,17.2,29.66,ENE,64,2.0,6.0,26,0.00,,,0.00,meteohub,2013-02-15 20:37:00,
2013-02-15 14:42:00,51.1,17.4,29.66,NNW,342,5.0,8.0,26,0.00,,,0.00,meteohub,2013-02-15 20:42:00,
2013-02-15 14:47:00,51.3,17.6,29.66,North,3,0.0,8.0,26,0.00,,,0.00,meteohub,2013-02-15 20:47:00,
2013-02-15 14:52:00,51.6,17.8,29.66,NNW,330,3.0,9.0,26,0.00,,,0.00,meteohub,2013-02-15 20:52:00,
2013-02-15 14:57:00,51.6,17.8,29.66,NE,48,6.0,9.0,26,0.00,,,0.00,meteohub,2013-02-15 20:57:00,
2013-02-15 15:02:00,51.6,17.8,29.66,NNE,26,4.0,9.0,26,0.00,,,0.00,meteohub,2013-02-15 21:02:00,
2013-02-15 15:07:00,51.3,17.6,29.66,ENE,64,3.0,8.0,26,0.00,,,0.00,meteohub,2013-02-15 21:07:00,
2013-02-15 15:12:00,51.3,15.6,29.66,ENE,60,3.0,8.0,24,0.00,,,0.00,meteohub,2013-02-15 21:12:00,
2013-02-15 15:17:00,51.1,15.4,29.66,NNE,21,3.0,6.0,24,0.00,,,0.00,meteohub,2013-02-15 21:17:00,
2013-02-15 15:22:00,51.4,15.8,29.66,ENE,58,3.0,8.0,24,0.00,,,0.00,meteohub,2013-02-15 21:22:00,
2013-02-15 15:27:00,51.6,16.0,29.66,North,10,3.0,8.0,24,0.00,,,0.00,meteohub,2013-02-15 21:27:00,
2013-02-15 15:32:00,52.2,15.4,29.63,North,5,6.0,8.0,23,0.00,,,0.00,meteohub,2013-02-15 21:32:00,
2013-02-15 15:37:00,52.2,15.4,29.63,ENE,62,4.0,8.0,23,0.00,,,0.00,meteohub,2013-02-15 21:37:00,
2013-02-15 15:42:00,52.0,15.3,29.63,NNW,329,3.0,8.0,23,0.00,,,0.00,meteohub,2013-02-15 21:42:00,
2013-02-15 15:47:00,51.8,15.1,29.63,NW,319,4.0,8.0,23,0.00,,,0.00,meteohub,2013-02-15 21:47:00,
2013-02-15 15:52:00,51.3,15.6,29.63,East,100,3.0,10.0,24,0.00,,,0.00,meteohub,2013-02-15 21:52:00,
2013-02-15 15:57:00,50.9,15.4,29.63,North,0,2.0,10.0,24,0.00,,,0.00,meteohub,2013-02-15 21:57:00,
2013-02-15 16:02:00,50.5,15.1,29.66,NNW,328,3.0,10.0,24,0.00,,,0.00,meteohub,2013-02-15 22:02:00,
2013-02-15 16:07:00,50.2,14.7,29.66,East,86,3.0,8.0,24,0.00,,,0.00,meteohub,2013-02-15 22:07:00,
2013-02-15 16:12:00,50.2,14.7,29.66,ENE,67,5.0,6.0,24,0.00,,,0.00,meteohub,2013-02-15 22:12:00,
2013-02-15 16:17:00,50.0,14.5,29.66,North,357,4.0,6.0,24,0.00,,,0.00,meteohub,2013-02-15 22:17:00,
2013-02-15 16:22:00,49.8,14.5,29.66,NW,313,3.0,8.0,24,0.00,,,0.00,meteohub,2013-02-15 22:22:00,
2013-02-15 16:27:00,49.6,14.4,29.66,WNW,299,4.0,8.0,24,0.00,,,0.00,meteohub,2013-02-15 22:27:00,
2013-02-15 16:32:00,49.5,14.2,29.66,ENE,62,4.0,8.0,24,0.00,,,0.00,meteohub,2013-02-15 22:32:00,
2013-02-15 16:37:00,49.3,14.0,29.66,North,0,6.0,8.0,24,0.00,,,0.00,meteohub,2013-02-15 22:37:00,
2013-02-15 16:42:00,49.1,10.8,29.66,NNE,18,4.0,10.0,21,0.00,,,0.00,meteohub,2013-02-15 22:42:00,
2013-02-15 16:47:00,48.7,10.6,29.66,North,353,0.0,10.0,21,0.00,,,0.00,meteohub,2013-02-15 22:47:00,
2013-02-15 16:52:00,48.7,10.6,29.66,West,263,3.0,10.0,21,0.00,,,0.00,meteohub,2013-02-15 22:52:00,
2013-02-15 16:58:00,48.7,10.6,29.66,NNW,341,2.0,7.0,21,0.00,,,0.00,meteohub,2013-02-15 22:58:00,
2013-02-15 17:03:00,48.7,10.6,29.66,ENE,64,3.0,7.0,21,0.00,,,0.00,meteohub,2013-02-15 23:03:00,
2013-02-15 17:08:00,48.7,10.6,29.66,North,0,0.0,7.0,21,0.00,,,0.00,meteohub,2013-02-15 23:08:00,
2013-02-15 17:13:00,48.7,10.6,29.66,North,7,4.0,7.0,21,0.00,,,0.00,meteohub,2013-02-15 23:13:00,
2013-02-15 17:18:00,48.9,10.8,29.66,NE,48,0.0,7.0,21,0.00,,,0.00,meteohub,2013-02-15 23:18:00,
2013-02-15 17:23:00,48.9,10.8,29.66,NNW,335,3.0,7.0,21,0.00,,,0.00,meteohub,2013-02-15 23:23:00,
2013-02-15 17:28:00,48.9,10.8,29.66,NE,37,3.0,7.0,21,0.00,,,0.00,meteohub,2013-02-15 23:28:00,
2013-02-15 17:33:00,48.7,10.6,29.66,ENE,62,4.0,6.0,21,0.00,,,0.00,meteohub,2013-02-15 23:33:00,
2013-02-15 17:38:00,48.7,10.6,29.66,East,95,4.0,7.0,21,0.00,,,0.00,meteohub,2013-02-15 23:38:00,
2013-02-15 17:43:00,48.4,10.2,29.66,ENE,72,0.0,8.0,21,0.00,,,0.00,meteohub,2013-02-15 23:43:00,
2013-02-15 17:48:00,48.2,10.0,29.66,NNW,329,3.0,8.0,21,0.00,,,0.00,meteohub,2013-02-15 23:48:00,
2013-02-15 17:53:00,48.0,10.9,29.66,NE,48,5.0,8.0,22,0.00,,,0.00,meteohub,2013-02-15 23:53:00,
2013-02-15 17:58:00,47.8,10.8,29.66,NNW,332,4.0,8.0,22,0.00,,,0.00,meteohub,2013-02-15 23:58:00,
2013-02-15 18:03:00,47.7,10.6,29.66,NNE,31,4.0,8.0,22,0.00,,,0.00,meteohub,2013-02-16 00:03:00,
2013-02-15 18:09:00,47.5,10.6,29.66,NNW,337,0.0,6.0,22,0.00,,,0.00,meteohub,2013-02-16 00:09:00,
2013-02-15 18:14:00,47.3,12.4,29.66,NE,37,5.0,6.0,24,0.00,,,0.00,meteohub,2013-02-16 00:14:00,
2013-02-15 18:19:00,47.1,12.2,29.66,ENE,75,0.0,6.0,24,0.00,,,0.00,meteohub,2013-02-16 00:19:00,
2013-02-15 18:24:00,46.9,12.0,29.66,NNE,12,3.0,8.0,24,0.00,,,0.00,meteohub,2013-02-16 00:24:00,
2013-02-15 18:29:00,46.8,11.8,29.69,NNW,337,2.0,8.0,24,0.00,,,0.00,meteohub,2013-02-16 00:29:00,
2013-02-15 18:34:00,46.6,11.7,29.69,ENE,58,0.0,8.0,24,0.00,,,0.00,meteohub,2013-02-16 00:34:00,
2013-02-15 18:39:00,46.6,11.7,29.69,NNE,18,2.0,5.0,24,0.00,,,0.00,meteohub,2013-02-16 00:39:00,
2013-02-15 18:44:00,46.4,11.5,29.69,NNW,338,0.0,5.0,24,0.00,,,0.00,meteohub,2013-02-16 00:44:00,
2013-02-15 18:49:00,46.2,12.4,29.69,NNE,12,0.0,5.0,25,0.00,,,0.00,meteohub,2013-02-16 00:49:00,
2013-02-15 18:54:00,46.0,12.2,29.69,NNW,330,0.0,5.0,25,0.00,,,0.00,meteohub,2013-02-16 00:54:00,
2013-02-15 18:59:00,45.9,12.0,29.66,North,353,0.0,4.0,25,0.00,,,0.00,meteohub,2013-02-16 00:59:00,
2013-02-15 19:04:00,45.7,11.8,29.66,NW,316,0.0,4.0,25,0.00,,,0.00,meteohub,2013-02-16 01:04:00,
2013-02-15 19:10:00,45.5,11.7,29.66,NW,318,0.0,4.0,25,0.00,,,0.00,meteohub,2013-02-16 01:10:00,
2013-02-15 19:15:00,45.3,11.5,29.69,NW,318,0.0,2.0,25,0.00,,,0.00,meteohub,2013-02-16 01:15:00,
2013-02-15 19:20:00,45.1,11.5,29.69,NW,318,0.0,0.0,25,0.00,,,0.00,meteohub,2013-02-16 01:20:00,
2013-02-15 19:25:00,44.8,11.1,29.69,NW,318,0.0,0.0,25,0.00,,,0.00,meteohub,2013-02-16 01:25:00,
2013-02-15 19:30:00,44.6,10.9,29.69,NW,318,0.0,0.0,25,0.00,,,0.00,meteohub,2013-02-16 01:30:00,
2013-02-15 19:35:00,44.4,10.8,29.69,NW,318,0.0,0.0,25,0.00,,,0.00,meteohub,2013-02-16 01:35:00,
2013-02-15 19:40:00,44.2,10.6,29.69,NNW,332,0.0,3.0,25,0.00,,,0.00,meteohub,2013-02-16 01:40:00,
2013-02-15 19:45:00,44.1,13.1,29.69,NW,317,2.0,3.0,28,0.00,,,0.00,meteohub,2013-02-16 01:45:00,
2013-02-15 19:50:00,44.1,13.1,29.69,NNE,25,3.0,4.0,28,0.00,,,0.00,meteohub,2013-02-16 01:50:00,
2013-02-15 19:56:00,44.1,13.1,29.69,NNW,342,0.0,4.0,28,0.00,,,0.00,meteohub,2013-02-16 01:56:00,
2013-02-15 20:01:00,43.9,12.9,29.69,NNE,32,0.0,4.0,28,0.00,,,0.00,meteohub,2013-02-16 02:01:00,
2013-02-15 20:06:00,43.7,12.7,29.69,NW,315,0.0,4.0,28,0.00,,,0.00,meteohub,2013-02-16 02:06:00,
2013-02-15 20:11:00,43.5,12.6,29.69,NNW,330,0.0,3.0,28,0.00,,,0.00,meteohub,2013-02-16 02:11:00,
2013-02-15 20:16:00,43.3,12.4,29.72,NNW,329,0.0,3.0,28,0.00,,,0.00,meteohub,2013-02-16 02:16:00,
2013-02-15 20:21:00,43.2,12.2,29.72,NNW,330,0.0,3.0,28,0.00,,,0.00,meteohub,2013-02-16 02:21:00,
2013-02-15 20:26:00,43.0,12.0,29.72,NNW,329,0.0,0.0,28,0.00,,,0.00,meteohub,2013-02-16 02:26:00,
2013-02-15 20:31:00,42.4,11.7,29.72,NNW,329,0.0,0.0,28,0.00,,,0.00,meteohub,2013-02-16 02:31:00,
2013-02-15 20:37:00,42.3,11.5,29.72,NNW,329,0.0,0.0,28,0.00,,,0.00,meteohub,2013-02-16 02:37:00,
2013-02-15 20:42:00,41.7,10.9,29.72,NNW,330,0.0,0.0,28,0.00,,,0.00,meteohub,2013-02-16 02:42:00,
2013-02-15 20:47:00,41.5,10.8,29.72,NNW,329,0.0,0.0,28,0.00,,,0.00,meteohub,2013-02-16 02:47:00,
2013-02-15 20:52:00,41.2,11.3,29.72,NNW,329,0.0,0.0,29,0.00,,,0.00,meteohub,2013-02-16 02:52:00,
2013-02-15 20:57:00,41.0,11.1,29.72,NNW,329,0.0,0.0,29,0.00,,,0.00,meteohub,2013-02-16 02:57:00,
2013-02-15 21:02:00,40.6,10.9,29.72,NNW,330,0.0,0.0,29,0.00,,,0.00,meteohub,2013-02-16 03:02:00,
2013-02-15 21:07:00,40.5,10.8,29.72,NNW,330,0.0,0.0,29,0.00,,,0.00,meteohub,2013-02-16 03:07:00,
2013-02-15 21:12:00,40.5,10.8,29.72,NNW,329,0.0,0.0,29,0.00,,,0.00,meteohub,2013-02-16 03:12:00,
2013-02-15 21:17:00,40.5,10.8,29.72,NNW,329,0.0,0.0,29,0.00,,,0.00,meteohub,2013-02-16 03:17:00,
2013-02-15 21:22:00,40.3,11.3,29.72,NNW,329,0.0,0.0,30,0.00,,,0.00,meteohub,2013-02-16 03:22:00,
2013-02-15 21:27:00,40.1,11.1,29.72,NNW,330,0.0,0.0,30,0.00,,,0.00,meteohub,2013-02-16 03:27:00,
2013-02-15 21:32:00,39.9,10.9,29.72,NNW,329,0.0,0.0,30,0.00,,,0.00,meteohub,2013-02-16 03:32:00,
2013-02-15 21:37:00,39.6,10.8,29.72,NNW,329,0.0,0.0,30,0.00,,,0.00,meteohub,2013-02-16 03:37:00,
2013-02-15 21:42:00,39.4,10.6,29.72,NNW,329,0.0,0.0,30,0.00,,,0.00,meteohub,2013-02-16 03:42:00,
2013-02-15 21:47:00,39.0,10.9,29.72,NNW,329,0.0,0.0,31,0.00,,,0.00,meteohub,2013-02-16 03:47:00,
2013-02-15 21:52:00,38.7,10.6,29.72,NNW,329,0.0,0.0,31,0.00,,,0.00,meteohub,2013-02-16 03:52:00,
2013-02-15 21:57:00,38.5,10.4,29.72,NNW,330,0.0,0.0,31,0.00,,,0.00,meteohub,2013-02-16 03:57:00,
2013-02-15 22:02:00,38.1,10.2,29.72,NNW,329,0.0,0.0,31,0.00,,,0.00,meteohub,2013-02-16 04:02:00,
2013-02-15 22:07:00,37.9,10.0,29.72,NNW,330,0.0,0.0,31,0.00,,,0.00,meteohub,2013-02-16 04:07:00,
2013-02-15 22:12:00,37.6,9.7,29.72,NNW,329,0.0,0.0,31,0.00,,,0.00,meteohub,2013-02-16 04:12:00,
2013-02-15 22:17:00,37.4,9.5,29.72,NNW,329,0.0,0.0,31,0.00,,,0.00,meteohub,2013-02-16 04:17:00,
2013-02-15 22:22:00,37.0,9.9,29.72,NNW,329,0.0,0.0,32,0.00,,,0.00,meteohub,2013-02-16 04:22:00,
2013-02-15 22:27:00,36.9,10.4,29.72,NNW,330,0.0,0.0,33,0.00,,,0.00,meteohub,2013-02-16 04:27:00,
2013-02-15 22:32:00,36.7,10.2,29.72,NNW,329,0.0,0.0,33,0.00,,,0.00,meteohub,2013-02-16 04:32:00,
2013-02-15 22:37:00,36.7,10.9,29.72,NNW,329,0.0,0.0,34,0.00,,,0.00,meteohub,2013-02-16 04:37:00,
2013-02-15 22:42:00,36.5,10.8,29.72,NNW,330,0.0,0.0,34,0.00,,,0.00,meteohub,2013-02-16 04:42:00,
2013-02-15 22:47:00,36.3,10.6,29.72,NNW,329,0.0,0.0,34,0.00,,,0.00,meteohub,2013-02-16 04:47:00,
2013-02-15 22:52:00,36.3,10.6,29.72,NNW,329,0.0,0.0,34,0.00,,,0.00,meteohub,2013-02-16 04:52:00,
2013-02-15 22:58:00,36.1,10.4,29.72,NNW,329,0.0,0.0,34,0.00,,,0.00,meteohub,2013-02-16 04:58:00,
2013-02-15 23:00:00,36.1,10.4,29.72,NNW,330,0.0,0.0,34,0.00,,,0.00,meteohub,2013-02-16 05:00:00,
2013-02-15 23:01:00,36.1,10.4,29.72,NNW,330,0.0,0.0,34,0.00,,,0.00,meteohub,2013-02-16 05:01:00,
2013-02-15 23:02:00,36.1,11.1,29.72,NNW,329,0.0,0.0,35,0.00,,,0.00,meteohub,2013-02-16 05:02:00,
2013-02-15 23:07:00,36.0,10.9,29.72,NNW,330,0.0,0.0,35,0.00,,,0.00,meteohub,2013-02-16 05:07:00,
2013-02-15 23:12:00,35.8,10.8,29.72,NNW,330,0.0,0.0,35,0.00,,,0.00,meteohub,2013-02-16 05:12:00,
2013-02-15 23:17:00,35.6,10.6,29.72,NNW,329,0.0,0.0,35,0.00,,,0.00,meteohub,2013-02-16 05:17:00,
2013-02-15 23:22:00,35.4,11.1,29.72,NNW,329,0.0,0.0,36,0.00,,,0.00,meteohub,2013-02-16 05:22:00,
2013-02-15 23:23:00,35.4,11.1,29.72,NNW,329,0.0,0.0,36,0.00,,,0.00,meteohub,2013-02-16 05:23:00,
2013-02-15 23:28:00,35.1,11.5,29.72,NNW,330,0.0,0.0,37,0.00,,,0.00,meteohub,2013-02-16 05:28:00,
2013-02-15 23:33:00,34.9,11.3,29.72,NNW,329,0.0,0.0,37,0.00,,,0.00,meteohub,2013-02-16 05:33:00,
2013-02-15 23:39:00,34.9,11.8,29.72,NNW,329,0.0,0.0,38,0.00,,,0.00,meteohub,2013-02-16 05:39:00,
2013-02-15 23:44:00,34.9,12.4,29.72,NNW,329,0.0,0.0,39,0.00,,,0.00,meteohub,2013-02-16 05:44:00,
2013-02-15 23:49:00,35.1,12.6,29.72,NNW,329,0.0,0.0,39,0.00,,,0.00,meteohub,2013-02-16 05:49:00,
2013-02-15 23:54:00,35.1,12.6,29.72,NNW,329,0.0,0.0,39,0.00,,,0.00,meteohub,2013-02-16 05:54:00,
2013-02-15 23:59:00,35.2,12.2,29.72,NNW,330,0.0,0.0,38,0.00,,,0.00,meteohub,2013-02-16 05:59:00,